Theta_e
322 325 329 331 331 329 327 327 328 329 330 341 347 346 341 341 340 340 339 336 334 332 331 330 329 329 328 329 326 326 326 326 326 326 326 326 328 329 328 327 325 319 325
322 324 327 330 330 328 328 327 329 332 331 343 347 343 341 341 339 340 337 334 332 330 330 329 328 327 326 327 327 326 325 325 327 327 326 326 328 328 328 328 327 324 320
324 326 328 330 328 327 327 328 334 333 334 347 345 342 342 340 339 337 334 334 330 329 328 328 328 327 327 327 326 325 325 325 325 326 326 326 327 327 329 328 327 325 320
332 330 328 328 328 328 330 334 335 330 339 347 343 342 342 341 337 332 331 331 331 329 328 329 329 330 329 328 327 325 324 323 325 325 326 326 327 328 327 326 327 325 325
333 331 331 330 331 333 334 334 331 339 347 345 342 341 341 334 330 332 330 330 331 331 329 330 330 329 329 328 327 326 323 324 325 326 325 326 327 328 327 326 325 326 324
335 332 334 335 333 336 339 339 347 348 346 343 342 334 330 332 331 330 329 329 328 329 329 330 329 328 326 328 326 326 324 323 324 324 325 326 327 327 326 326 326 322 326
338 335 335 338 340 340 345 344 345 347 344 340 331 329 330 331 330 330 328 329 328 329 330 329 328 325 325 328 327 324 325 325 326 326 325 325 326 327 326 326 325 321 319
337 338 338 340 340 343 345 343 341 341 336 330 331 333 330 330 330 329 328 328 328 329 329 329 327 325 326 327 327 326 327 326 327 327 326 326 326 325 326 325 325 324 321
335 337 340 339 342 344 341 339 337 335 333 333 333 331 330 330 329 328 328 328 328 328 330 329 325 325 326 327 326 326 326 326 326 326 327 326 325 325 326 326 325 325 323
335 337 338 338 343 340 339 336 333 331 332 331 330 330 330 329 329 329 329 328 327 329 330 329 325 325 325 325 325 325 325 326 326 324 325 325 325 326 325 326 325 325 324
328 333 337 339 339 336 333 330 332 331 331 330 330 331 330 329 329 328 326 326 327 330 329 328 326 327 325 325 325 325 326 325 324 325 325 325 325 325 324 325 325 325 325
325 334 338 339 335 334 333 332 331 330 329 330 331 330 330 329 329 326 325 325 328 329 328 327 328 328 327 326 326 327 326 325 325 326 325 325 325 324 324 324 326 326 326
328 337 335 333 333 333 332 331 332 331 330 331 330 330 330 329 326 325 325 327 329 329 328 327 326 325 326 327 326 327 326 325 324 323 324 324 325 325 324 323 324 326 326
335 333 332 332 333 329 329 330 331 332 331 331 331 331 330 326 325 325 325 328 328 328 327 328 326 325 325 325 326 326 326 325 324 324 323 325 324 322 322 323 324 325 323
333 333 332 331 330 329 330 330 331 332 332 332 330 330 329 328 326 326 326 327 328 328 326 327 326 325 324 324 324 326 325 324 324 322 322 323 321 322 322 323 323 324 324
333 332 330 330 331 331 331 332 332 331 330 330 330 329 329 327 326 326 325 325 327 326 326 325 324 325 324 323 326 326 325 324 323 322 321 320 322 322 322 322 323 323 320
332 331 330 330 331 330 331 330 331 331 331 330 331 330 328 326 324 323 322 322 322 322 323 323 323 324 324 324 324 323 324 324 323 321 320 320 322 322 323 322 322 322 322
331 331 329 329 330 330 328 328 329 329 329 329 330 329 328 326 323 322 322 322 323 322 324 323 323 323 322 323 324 324 325 325 323 321 320 320 321 322 323 323 323 324 323
331 329 329 327 327 327 329 328 328 328 327 327 327 329 328 325 324 323 322 322 322 322 322 321 321 322 323 323 323 324 324 324 323 321 320 321 322 322 322 323 324 324 323
330 328 329 327 328 329 330 330 329 328 327 327 327 327 327 324 323 322 322 322 322 322 322 322 321 323 323 323 323 323 324 323 321 321 320 321 322 322 323 323 323 323 323
329 328 328 329 329 329 330 330 330 329 328 327 327 326 325 325 322 322 323 323 323 323 324 322 322 323 323 323 324 323 324 323 321 321 321 321 322 322 322 322 322 322 323
329 329 328 328 330 330 329 328 327 326 326 326 325 324 323 322 323 324 324 324 325 324 324 325 324 322 323 324 324 324 324 323 323 322 324 323 322 322 322 322 323 323 323
330 329 329 329 330 331 329 325 324 324 324 324 324 323 323 324 325 325 326 325 327 327 325 325 326 326 325 324 324 324 324 324 324 324 324 324 324 322 322 323 323 323 323
330 331 331 331 332 331 331 328 325 324 324 324 324 324 325 325 326 326 327 327 328 328 327 325 326 326 326 326 326 326 325 325 324 324 324 324 324 324 324 324 325 325 326
330 330 331 330 332 332 331 331 328 325 324 324 324 325 325 325 325 325 327 328 328 328 328 327 326 326 327 327 327 327 327 327 326 327 327 326 326 326 326 326 326 326 326
331 331 330 330 330 331 332 331 329 324 324 324 324 325 325 326 327 327 327 327 327 327 326 326 325 325 325 326 326 327 326 326 326 326 326 326 326 326 326 326 326 326 326
Wind_Speed
37 39 48 47 45 38 32 33 30 28 22 22 24 21 20 21 20 17 17 14 13 13 14 12 11 11 11 11 12 11 10 10 11 9 8 6 10 12 13 14 11 11 12
38 40 43 45 40 37 37 31 30 29 21 24 26 23 23 22 21 17 16 14 12 12 11 11 10 10 11 11 12 12 12 10 7 8 9 8 12 12 13 15 12 11 12
35 40 40 42 41 38 33 29 29 26 23 28 26 26 25 22 19 16 13 12 11 11 8 8 8 10 12 11 11 11 14 13 8 7 8 10 13 14 17 16 15 12 12
22 27 31 33 31 30 27 27 29 25 28 31 28 26 24 22 16 13 12 10 14 13 10 7 8 9 11 11 10 10 13 14 11 8 7 12 14 16 15 16 16 12 13
27 24 26 26 26 26 27 27 25 28 33 31 28 25 22 19 14 15 12 12 13 14 12 9 8 8 9 9 11 11 14 14 13 10 10 14 16 18 16 17 20 16 15
23 29 29 27 26 25 26 25 26 31 33 32 29 24 22 19 15 13 14 14 11 11 10 9 9 9 9 10 10 12 14 13 15 13 14 16 19 20 18 19 20 20 20
20 24 22 22 23 26 28 30 30 31 33 31 26 23 21 19 16 17 14 12 11 10 9 9 9 9 9 13 12 11 13 12 10 9 12 17 19 22 20 19 19 21 23
12 19 22 25 29 31 32 32 28 32 30 27 25 24 21 18 16 15 14 14 12 11 9 10 8 6 9 14 13 12 12 11 10 11 8 9 13 18 22 19 21 18 18
12 19 26 32 35 36 32 28 29 30 28 24 25 22 20 17 16 16 16 15 13 12 12 10 9 6 6 10 11 10 9 9 10 11 10 9 9 16 22 19 21 21 22
2 18 28 31 34 31 30 30 30 28 27 24 22 19 17 19 18 15 16 16 15 14 14 11 10 7 7 9 8 7 8 11 10 11 13 12 13 15 18 17 19 22 21
12 11 30 31 29 30 31 29 30 27 25 22 19 19 18 16 15 14 14 13 14 15 16 11 11 11 8 8 8 7 6 8 9 8 13 14 16 17 19 20 20 18 18
29 27 36 29 31 32 33 30 28 25 22 21 22 21 19 16 15 14 12 12 12 11 14 11 11 9 9 9 10 8 9 9 10 9 11 17 20 19 19 18 18 18 18
38 41 33 33 32 28 27 28 28 24 24 23 24 22 20 18 16 14 13 13 13 13 11 9 9 9 10 10 10 11 10 10 10 12 14 16 19 20 19 17 16 16 20
37 36 34 32 31 27 26 27 24 25 24 25 24 22 20 19 17 15 14 15 14 14 12 9 8 9 9 9 11 13 11 10 8 12 13 15 16 18 19 20 20 16 18
38 36 33 30 31 27 25 25 21 20 21 23 23 21 20 17 15 13 13 14 14 14 12 11 9 10 9 10 11 14 13 11 7 9 12 16 17 18 19 20 21 20 21
34 35 30 29 27 23 23 23 19 18 17 15 14 14 14 8 10 13 13 12 11 11 12 10 10 11 11 10 14 18 15 12 9 9 9 12 15 17 17 18 18 17 17
35 33 29 25 23 23 23 23 24 21 18 16 14 12 12 12 8 12 13 11 9 9 9 10 11 13 13 14 17 18 17 13 10 8 9 14 16 17 16 17 17 16 18
34 28 24 24 25 25 25 24 23 23 23 19 18 17 15 13 10 12 11 11 10 8 7 6 7 8 11 14 18 20 17 16 12 9 8 12 17 17 17 17 19 16 13
29 24 27 24 23 24 24 23 24 22 20 20 20 18 16 14 12 11 8 7 7 6 5 5 6 6 8 11 14 17 19 17 11 9 11 9 14 17 18 18 19 17 16
32 27 27 23 24 23 22 21 22 20 21 20 21 19 20 17 14 13 12 8 11 7 5 5 5 4 7 8 12 12 12 12 9 9 12 12 9 12 13 14 15 16 16
31 25 23 23 19 19 18 20 20 20 19 20 18 16 15 13 14 15 13 15 10 6 7 5 5 5 8 12 11 11 12 9 7 7 12 15 11 12 12 12 13 13 13
31 23 23 20 19 17 15 18 20 19 18 17 16 16 15 14 15 16 15 12 9 6 6 7 8 7 8 8 10 11 10 9 8 7 8 11 11 11 11 11 11 11 12
31 25 24 21 18 17 16 17 21 21 20 18 20 22 20 19 17 15 13 12 10 10 8 7 6 7 9 9 9 8 9 9 8 9 9 9 10 12 12 12 11 11 13
30 27 22 20 19 20 19 18 21 23 24 24 24 24 22 19 16 13 11 8 7 9 9 8 8 4 2 10 9 9 8 8 7 7 7 8 9 11 12 12 11 12 15
27 22 21 20 19 21 21 21 20 22 25 27 28 24 21 17 13 12 10 11 12 10 10 8 7 5 5 4 4 5 5 5 6 6 6 5 7 11 13 13 15 16 16
30 26 23 18 25 26 26 27 25 29 31 31 29 27 23 20 17 14 13 13 15 15 14 11 8 7 7 6 6 3 2 8 7 6 5 5 5 4 7 10 11 13 15
Wind_Direction
235 235 235 234 234 235 244 243 239 235 227 220 218 217 206 206 208 206 208 217 227 237 239 239 237 243 239 240 242 243 244 240 250 248 241 222 199 193 189 173 176 178 186
238 231 236 234 235 240 240 239 235 224 223 218 215 209 202 201 206 206 213 221 229 234 227 229 228 236 239 245 245 242 231 231 235 229 222 203 189 195 195 183 183 173 177
235 227 226 228 232 236 237 224 218 217 218 209 205 201 199 200 204 206 219 223 225 205 199 205 231 239 240 253 243 235 222 211 215 220 215 198 189 189 191 196 188 175 173
219 212 215 216 218 217 212 209 212 217 210 200 197 195 195 195 200 206 200 215 204 195 201 221 235 253 250 243 239 224 207 204 209 213 211 200 194 184 188 190 173 180 176
217 212 212 209 203 202 204 210 213 206 200 193 187 187 187 189 195 195 210 215 197 206 217 231 253 253 246 236 223 216 204 205 207 209 208 198 196 187 190 187 191 184 175
218 208 199 194 196 205 208 194 195 194 191 182 180 181 178 186 198 203 212 194 200 206 222 237 247 242 249 221 206 205 203 213 216 222 212 202 199 195 187 186 185 175 154
206 194 194 204 204 192 179 188 189 185 175 172 176 175 180 188 200 204 206 207 211 218 226 238 234 254 227 207 200 200 201 215 219 234 231 214 208 201 198 190 190 189 181
189 219 212 202 190 182 180 172 178 169 168 168 172 182 185 197 206 197 202 204 219 226 229 222 231 233 208 200 204 210 218 222 217 200 212 239 238 217 198 203 193 190 182
194 226 216 195 181 174 169 169 171 168 169 175 175 180 193 193 194 197 200 205 215 224 208 207 209 209 191 195 198 215 214 209 193 182 192 225 209 204 201 198 194 190 182
320 215 202 182 170 168 170 166 169 171 172 170 175 192 190 187 195 204 207 212 215 203 193 206 205 197 196 198 202 215 209 198 203 204 203 192 183 191 193 200 203 197 196
232 233 193 175 167 166 163 163 164 166 173 183 185 180 186 195 198 201 200 203 207 206 193 200 211 202 191 189 189 194 208 214 203 203 203 189 181 186 192 197 205 215 219
235 210 180 166 167 165 165 167 171 176 177 177 180 183 188 195 196 195 196 194 196 200 191 205 223 216 199 198 203 197 199 210 206 200 196 187 180 188 193 200 209 218 223
262 175 161 163 164 169 176 176 177 182 181 182 188 192 191 189 189 193 191 190 192 189 199 205 215 212 210 207 200 204 195 202 211 218 197 195 194 195 196 199 207 211 218
164 152 155 159 163 161 165 176 179 183 187 191 192 193 190 189 191 191 190 192 188 187 197 203 205 207 210 202 207 197 200 211 219 216 215 207 205 199 203 207 203 213 203
155 157 160 163 167 172 177 182 190 194 199 196 194 193 189 194 198 199 198 195 198 196 206 210 217 210 204 191 203 204 198 200 211 227 210 201 203 200 206 206 208 204 210
163 159 161 165 171 172 180 183 186 189 188 192 189 187 184 174 180 191 190 189 191 198 208 222 222 217 211 201 203 195 198 201 205 227 210 193 196 194 201 202 196 198 193
161 161 167 171 172 174 174 171 170 173 177 178 180 178 179 173 163 168 167 176 187 190 206 209 209 217 211 211 206 212 208 199 200 212 216 195 195 197 195 189 189 201 206
165 166 165 159 163 163 166 168 168 167 167 171 172 172 173 174 172 172 173 184 191 200 213 203 209 214 222 214 213 217 206 203 198 205 213 203 198 197 200 197 195 208 199
164 164 159 158 164 173 173 172 173 171 172 170 172 172 169 173 174 175 183 195 189 170 158 178 196 202 195 202 205 211 220 200 195 205 200 206 200 202 209 206 208 214 206
168 163 166 174 182 182 181 180 178 174 173 173 174 180 175 175 176 169 165 161 150 148 147 155 166 169 190 193 191 197 195 177 186 205 202 209 204 208 211 216 218 220 215
174 158 173 186 184 180 175 176 178 178 177 175 176 177 178 176 165 155 148 148 153 149 109 120 145 132 146 165 174 162 171 178 188 198 198 202 208 213 216 220 231 240 231
182 172 177 186 177 175 166 172 172 170 168 168 165 163 158 152 140 133 132 132 138 143 124 105 117 137 142 161 190 200 201 198 198 195 207 206 212 212 209 210 216 224 230
189 180 183 189 188 176 165 164 165 166 160 158 153 146 143 145 143 142 139 135 131 134 136 140 131 124 133 135 143 167 192 202 210 211 209 208 211 212 214 213 223 241 248
195 183 180 180 193 188 177 167 170 166 160 157 156 154 151 150 150 147 141 151 161 154 153 152 155 156 65 157 140 143 150 152 164 179 189 193 191 200 213 230 242 256 261
199 177 186 183 201 199 180 180 175 170 169 169 166 163 163 164 166 161 158 158 151 156 155 161 171 165 149 148 171 179 182 199 205 207 218 232 228 227 231 242 250 256 265
182 181 183 176 181 182 186 183 178 179 181 177 174 173 177 176 177 178 164 163 162 161 161 160 156 151 150 150 140 137 221 212 216 238 243 267 270 259 252 253 258 252 262